TimeEDT,TemperatureF,Dew PointF,Humidity,Sea Level PressureIn,VisibilityMPH,Wind Direction,Wind SpeedMPH,Gust SpeedMPH,PrecipitationIn,Events,Conditions,WindDirDegrees,DateUTC
12:15 AM,38.7,32.9,80,30.02,10.0,South,4.6,-,N/A,,Mostly Cloudy,190,2012-10-08 04:15:00
12:35 AM,38.8,32.9,79,30.02,10.0,South,3.5,-,N/A,,Mostly Cloudy,180,2012-10-08 04:35:00
12:55 AM,38.1,32.4,80,30.01,10.0,SSE,4.6,-,N/A,,Overcast,160,2012-10-08 04:55:00
1:15 AM,37.8,32.4,81,30.01,10.0,South,3.5,-,N/A,,Overcast,180,2012-10-08 05:15:00
1:36 AM,39.4,31.6,74,30.01,10.0,South,6.9,-,N/A,,Overcast,190,2012-10-08 05:36:00
1:55 AM,40.3,31.1,70,30.01,10.0,SSW,5.8,-,N/A,,Overcast,210,2012-10-08 05:55:00
2:15 AM,40.5,30.6,68,30.01,10.0,SSW,8.1,-,N/A,,Overcast,210,2012-10-08 06:15:00
2:36 AM,40.6,30.0,66,30.01,10.0,SSW,11.5,17.3,N/A,,Overcast,210,2012-10-08 06:36:00
2:55 AM,40.5,29.8,66,30.01,10.0,SSW,10.4,-,N/A,,Overcast,210,2012-10-08 06:55:00
3:15 AM,40.5,29.8,66,30.01,10.0,SW,6.9,-,N/A,,Overcast,220,2012-10-08 07:15:00
3:35 AM,40.3,30.0,67,30.01,10.0,SSW,5.8,-,N/A,,Overcast,210,2012-10-08 07:35:00
3:55 AM,40.3,30.4,68,30.01,10.0,SSW,8.1,-,N/A,,Overcast,210,2012-10-08 07:55:00
4:15 AM,40.5,30.7,68,30.01,10.0,SSW,8.1,-,N/A,,Overcast,200,2012-10-08 08:15:00
4:35 AM,40.6,30.7,68,30.01,10.0,SSW,10.4,-,N/A,,Overcast,210,2012-10-08 08:35:00
4:55 AM,41.0,30.4,66,30.01,10.0,SSW,8.1,-,N/A,,Overcast,200,2012-10-08 08:55:00
5:15 AM,41.0,30.2,65,30.01,10.0,SSW,5.8,-,N/A,,Overcast,210,2012-10-08 09:15:00
5:35 AM,41.2,30.2,65,30.01,10.0,SSW,5.8,-,N/A,,Overcast,210,2012-10-08 09:35:00
5:55 AM,41.2,30.2,65,30.01,10.0,SSW,6.9,-,N/A,,Overcast,210,2012-10-08 09:55:00
6:15 AM,40.6,30.2,66,30.02,10.0,SSW,4.6,-,N/A,,Mostly Cloudy,200,2012-10-08 10:15:00
6:35 AM,40.6,30.2,66,30.02,10.0,South,3.5,-,N/A,,Mostly Cloudy,190,2012-10-08 10:35:00
6:55 AM,39.7,30.6,70,30.02,10.0,South,4.6,-,N/A,,Mostly Cloudy,180,2012-10-08 10:55:00
7:15 AM,38.5,29.8,71,30.03,10.0,South,3.5,-,N/A,,Mostly Cloudy,170,2012-10-08 11:15:00
7:35 AM,38.7,29.1,69,30.03,10.0,South,3.5,-,N/A,,Mostly Cloudy,180,2012-10-08 11:35:00
7:56 AM,37.6,28.4,69,30.03,10.0,South,4.6,-,N/A,,Scattered Clouds,170,2012-10-08 11:56:00
8:15 AM,38.3,28.2,67,30.03,10.0,South,5.8,-,N/A,,Scattered Clouds,170,2012-10-08 12:15:00
8:35 AM,39.2,28.0,64,30.03,10.0,South,6.9,-,N/A,,Scattered Clouds,170,2012-10-08 12:35:00
8:55 AM,40.1,28.2,63,30.04,10.0,South,6.9,-,N/A,,Scattered Clouds,180,2012-10-08 12:55:00
9:13 AM,41.2,28.9,62,30.04,10.0,South,6.9,-,N/A,,Clear,190,2012-10-08 13:13:00
9:35 AM,42.6,28.8,58,30.04,10.0,South,8.1,-,N/A,,Clear,180,2012-10-08 13:35:00
9:55 AM,44.8,29.7,55,30.04,10.0,SSW,9.2,-,N/A,,Clear,200,2012-10-08 13:55:00
10:15 AM,46.4,29.5,52,30.04,10.0,South,9.2,-,N/A,,Clear,190,2012-10-08 14:15:00
10:35 AM,48.2,29.7,49,30.03,10.0,South,9.2,-,N/A,,Clear,190,2012-10-08 14:35:00
10:55 AM,49.1,29.5,47,30.03,10.0,South,10.4,-,N/A,,Clear,190,2012-10-08 14:55:00
11:15 AM,51.1,30.4,45,30.03,10.0,South,11.5,16.1,N/A,,Clear,190,2012-10-08 15:15:00
11:36 AM,52.2,29.8,42,30.02,10.0,SSW,10.4,19.6,N/A,,Clear,200,2012-10-08 15:36:00
11:55 AM,52.5,29.3,41,30.02,10.0,SW,16.1,26.5,N/A,,Clear,220,2012-10-08 15:55:00
12:15 PM,53.4,30.2,41,30.01,10.0,SW,15.0,21.9,N/A,,Clear,220,2012-10-08 16:15:00
12:35 PM,54.3,29.5,39,30.01,10.0,SSW,13.8,19.6,N/A,,Clear,200,2012-10-08 16:35:00
12:56 PM,54.5,28.9,38,30.01,10.0,SSW,16.1,25.3,N/A,,Clear,210,2012-10-08 16:56:00
1:15 PM,55.2,28.8,36,30.01,10.0,SSW,13.8,21.9,N/A,,Clear,200,2012-10-08 17:15:00
1:55 PM,56.7,28.8,34,29.99,10.0,SSW,10.4,20.7,N/A,,Clear,200,2012-10-08 17:55:00
2:15 PM,57.6,28.2,33,29.98,10.0,SSW,15.0,21.9,N/A,,Clear,200,2012-10-08 18:15:00
2:35 PM,57.9,28.2,32,29.98,10.0,SW,13.8,24.2,N/A,,Mostly Cloudy,230,2012-10-08 18:35:00
2:55 PM,57.0,27.7,33,29.98,10.0,SSW,17.3,26.5,N/A,,Scattered Clouds,200,2012-10-08 18:55:00
3:15 PM,56.5,28.0,34,29.97,10.0,SSW,11.5,-,N/A,,Mostly Cloudy,200,2012-10-08 19:15:00
3:35 PM,56.5,27.9,33,29.97,10.0,SSW,12.7,18.4,N/A,,Scattered Clouds,200,2012-10-08 19:35:00
3:55 PM,56.7,28.6,34,29.96,10.0,SSW,13.8,17.3,N/A,,Scattered Clouds,210,2012-10-08 19:55:00
4:15 PM,55.4,28.4,36,29.96,10.0,SSW,11.5,18.4,N/A,,Scattered Clouds,200,2012-10-08 20:15:00
4:36 PM,56.3,29.5,36,29.96,10.0,South,10.4,-,N/A,,Clear,190,2012-10-08 20:36:00
4:55 PM,54.9,28.9,37,29.95,10.0,South,10.4,17.3,N/A,,Clear,190,2012-10-08 20:55:00
5:15 PM,54.9,28.4,36,29.94,10.0,SSW,12.7,19.6,N/A,,Scattered Clouds,200,2012-10-08 21:15:00
5:35 PM,55.4,29.3,37,29.94,10.0,South,8.1,17.3,N/A,,Overcast,190,2012-10-08 21:35:00
5:55 PM,54.7,30.0,39,29.93,10.0,South,9.2,-,N/A,,Overcast,180,2012-10-08 21:55:00
6:15 PM,53.6,30.7,42,29.93,10.0,South,8.1,-,N/A,,Overcast,190,2012-10-08 22:15:00
6:35 PM,53.1,30.2,42,29.93,10.0,South,6.9,-,N/A,,Overcast,180,2012-10-08 22:35:00
6:55 PM,52.2,31.1,45,29.93,10.0,South,4.6,-,N/A,,Mostly Cloudy,190,2012-10-08 22:55:00
7:15 PM,52.2,31.8,46,29.93,10.0,South,6.9,-,N/A,,Mostly Cloudy,190,2012-10-08 23:15:00
7:35 PM,52.2,31.8,46,29.94,10.0,South,8.1,-,N/A,,Scattered Clouds,180,2012-10-08 23:35:00
7:55 PM,52.0,32.0,47,29.94,10.0,South,8.1,-,N/A,,Clear,180,2012-10-08 23:55:00
8:15 PM,52.0,32.0,47,29.94,10.0,South,11.5,17.3,N/A,,Mostly Cloudy,180,2012-10-09 00:15:00
8:35 PM,52.0,32.0,47,29.94,10.0,South,9.2,16.1,N/A,,Scattered Clouds,190,2012-10-09 00:35:00
8:55 PM,51.8,32.0,47,29.94,10.0,South,9.2,17.3,N/A,,Mostly Cloudy,180,2012-10-09 00:55:00
9:15 PM,51.8,32.0,47,29.94,10.0,South,9.2,17.3,N/A,,Mostly Cloudy,180,2012-10-09 01:15:00
9:35 PM,51.6,32.0,47,29.93,10.0,South,11.5,16.1,N/A,,Overcast,180,2012-10-09 01:35:00
10:15 PM,51.8,30.0,43,29.93,10.0,South,11.5,19.6,N/A,,Overcast,180,2012-10-09 02:15:00
10:35 PM,51.6,29.1,42,29.93,10.0,South,12.7,17.3,N/A,,Overcast,180,2012-10-09 02:35:00
10:56 PM,51.6,28.8,41,29.94,10.0,South,12.7,17.3,N/A,,Overcast,190,2012-10-09 02:56:00
11:15 PM,51.4,28.8,42,29.93,10.0,South,9.2,16.1,N/A,,Overcast,190,2012-10-09 03:15:00
11:55 PM,51.1,29.1,43,29.93,10.0,South,9.2,18.4,N/A,,Overcast,190,2012-10-09 03:55:00